Flag for United Kingdom

Past Weather in Durham, England, United Kingdom — Yesterday and Last 2 Weeks

Now
55 °F

Scattered clouds.


Feels Like: 54 °F
Forecast: 61 / 50 °F
Wind: 6 mph from Southeast

Location: Newcastle

Current Time: Jul 2, 2020 at 8:56:40 pm

Latest Report: Jul 2, 2020 at 7:50 pm


Visibility: N/A

Pressure: 29.89 "Hg

Humidity: 67%

Dew Point: 45 °F

Location of DurhamLocation

Past Weather in Durham — Graph

°F

Durham Temperature Yesterday

Maximum temperature yesterday: 57 °F (at 9:20 am)
Minimum temperature yesterday: 52 °F (at 8:20 pm)
Average temperature yesterday: 54 °F

High & Low Weather Summary for the Past Weeks

 TemperatureHumidityPressure
High82 °F (Jun 24, 2:50 pm)100% (Jun 18, 2:50 am)30.15 "Hg (Jun 18, 2:50 am)
Low46 °F (Jun 22, 3:50 am)42% (Jun 24, 1:50 pm)29.36 "Hg (Jun 27, 7:20 pm)
Average60 °F76%29.81 "Hg
* Reported Jun 17 7:20 pm — Jul 2 7:20 pm, Durham. Weather by CustomWeather, © 2020

Note: Actual official high and low records may vary slightly from our data, if they occured in-between our weather recording intervals... More about our weather records

Durham Weather History for the Previous 24 Hours

Scroll right to see more
 ConditionsComfort  
Time TempWeatherWind HumidityBarometerVisibility
7:20 pm
Thu, Jul 2
55 °FScattered clouds.6 mph67%29.89 "HgN/A
6:50 pm57 °FScattered clouds.6 mph63%29.89 "HgN/A
6:20 pm57 °FScattered clouds.6 mph59%29.89 "HgN/A
5:50 pm57 °FScattered clouds.6 mph63%29.89 "HgN/A
5:20 pm57 °FScattered clouds.5 mph59%29.89 "HgN/A
4:50 pm59 °FScattered clouds.6 mph55%29.89 "HgN/A
4:20 pm59 °FScattered clouds.6 mph55%29.89 "HgN/A
3:50 pm57 °FScattered clouds.7 mph59%29.89 "HgN/A
3:20 pm59 °FScattered clouds.6 mph59%29.89 "HgN/A
2:50 pm57 °FScattered clouds.8 mph63%29.89 "HgN/A
2:20 pm57 °FPassing clouds.7 mph63%29.89 "HgN/A
1:50 pm55 °FPassing clouds.6 mph59%29.89 "HgN/A
1:20 pm57 °FScattered clouds.7 mph59%29.89 "HgN/A
12:50 pm57 °FScattered clouds.7 mph59%29.89 "HgN/A
12:20 pm57 °FScattered clouds.7 mph63%29.86 "HgN/A
11:50 am55 °FScattered clouds.8 mph67%29.86 "HgN/A
11:20 am55 °FScattered clouds.8 mph67%29.86 "HgN/A
10:50 am55 °FPartly sunny.8 mph72%29.86 "HgN/A
10:20 am54 °FPartly sunny.8 mph77%29.86 "HgN/A
9:50 am54 °FPartly sunny.8 mph82%29.83 "HgN/A
9:20 am54 °FBroken clouds.8 mph82%29.83 "HgN/A
8:50 am52 °FBroken clouds.8 mph94%29.83 "HgN/A
8:20 am52 °FPartly sunny.9 mph94%29.83 "HgN/A
7:50 am52 °FMore clouds than sun.6 mph88%29.80 "HgN/A
7:20 am52 °FOvercast.6 mph88%29.80 "HgN/A
6:50 am50 °FOvercast.5 mph94%29.80 "HgN/A
6:20 am50 °FOvercast.5 mph94%29.80 "HgN/A
5:50 am50 °FMore clouds than sun.3 mph94%29.77 "HgN/A
5:20 am50 °FMostly cloudy.3 mph94%29.77 "HgN/A
4:50 am50 °FMostly cloudy.3 mph88%29.77 "HgN/A
4:20 am50 °FMostly cloudy.2 mph88%29.77 "HgN/A
3:50 am50 °FOvercast.5 mph88%29.77 "HgN/A
3:20 am50 °FLight rain. Overcast.6 mph88%29.77 "Hg4 mi
2:50 am50 °FMostly cloudy.3 mph94%29.77 "Hg5 mi
2:20 am50 °FRain. Mostly cloudy.3 mph94%29.77 "Hg6 mi
1:50 am50 °FLight rain. Mostly cloudy.2 mph94%29.77 "Hg4 mi
1:20 am50 °FRain. Overcast.5 mph94%29.77 "HgN/A
12:50 am50 °FRain. Overcast.5 mph94%29.77 "HgN/A
12:20 am52 °FLow clouds.5 mph88%29.77 "HgN/A
11:50 pm
Wed, Jul 1
52 °FLight rain. Mostly cloudy.5 mph88%29.77 "HgN/A
11:20 pm52 °FMostly cloudy.5 mph88%29.77 "HgN/A
10:50 pm52 °FOvercast.5 mph88%29.77 "HgN/A
10:20 pm52 °FOvercast.6 mph88%29.74 "HgN/A
9:50 pm52 °FOvercast.7 mph88%29.74 "HgN/A
9:20 pm52 °FLight rain. Passing clouds.5 mph88%29.74 "Hg6 mi
8:50 pm52 °FPassing clouds.5 mph82%29.74 "HgN/A
8:20 pm52 °FPassing clouds.8 mph88%29.71 "HgN/A
Weather by CustomWeather, © 2020

See weather overview